Location: Gouy
(50.0008°N, 3.2556°E)
Time: 04:22:39
(UTC+00:00)

CRYOSAT 2 - Visible Passes

Search period start: 21 May 2025 00:00
Search period end: 31 May 2025 00:00
Orbit: 718 x 721 km, 92.0° (Epoch: 20 May)

Date Brightness Start Highest point End Pass type
(mag) Time Alt. Az. Time Alt. Az. Time Alt. Az.
21 May 7.3 21:35:40 10° W 21:37:09 11° WNW 21:38:37 10° WNW visible
22 May 6.4 20:41:57 10° SW 20:46:09 28° W 20:50:21 10° NNW visible
23 May 7.5 21:34:37 10° W 21:35:17 10° WNW 21:35:56 10° WNW visible
24 May 6.5 20:40:10 10° SW 20:44:15 26° W 20:48:20 10° NNW visible
26 May 6.6 20:38:23 10° SW 20:42:20 24° W 20:46:18 10° NNW visible
28 May 6.8 20:36:38 10° SW 20:40:26 22° W 20:44:16 10° NNW visible
30 May 6.9 20:34:53 10° SW 20:38:32 21° W 20:42:13 10° NNW visible
